Time,TemperatureF,DewpointF,PressureIn,WindDirection,WindDirectionDegrees,WindSpeedMPH,WindSpeedGustMPH,Humidity,HourlyPrecipIn,Conditions,Clouds,dailyrainin,SolarRadiationWatts/m^2,SoftwareType,DateUTC
2013-10-19 00:00:00,41.0,39.0,-100.00,NNW,337,3.0,-999.0,91,0.01,,,-99.99,0.000000,,2013-10-19 05:00:00,
2013-10-19 00:42:00,41.0,39.0,-100.00,NNW,337,3.0,-999.0,91,0.01,,,-99.99,0.000000,,2013-10-19 05:42:00,
2013-10-19 00:52:00,41.0,39.0,-100.00,NNW,337,3.0,-999.0,91,0.01,,,-99.99,0.000000,,2013-10-19 05:52:00,
2013-10-19 01:00:00,41.0,38.0,-100.00,NNW,337,4.0,-999.0,88,-99.99,,,-99.99,0.000000,,2013-10-19 06:00:00,
2013-10-19 01:42:00,41.0,38.0,-100.00,NNW,337,4.0,-999.0,88,-99.99,,,-99.99,0.000000,,2013-10-19 06:42:00,
2013-10-19 01:52:00,41.0,38.0,-100.00,NNW,337,4.0,-999.0,88,-99.99,,,-99.99,0.000000,,2013-10-19 06:52:00,
2013-10-19 03:00:00,41.0,36.0,-100.00,NW,315,2.0,-999.0,82,-99.99,,,-99.99,0.000000,,2013-10-19 08:00:00,
2013-10-19 03:42:00,41.0,36.0,-100.00,NW,315,2.0,-999.0,82,-99.99,,,-99.99,0.000000,,2013-10-19 08:42:00,
2013-10-19 03:52:00,41.0,36.0,-100.00,NW,315,2.0,-999.0,82,-99.99,,,-99.99,0.000000,,2013-10-19 08:52:00,
2013-10-19 04:00:00,41.0,35.0,-100.00,NW,315,1.0,-999.0,79,-99.99,,,-99.99,0.000000,,2013-10-19 09:00:00,
2013-10-19 04:43:00,41.0,35.0,-100.00,NW,315,1.0,-999.0,79,-99.99,,,-99.99,0.000000,,2013-10-19 09:43:00,
2013-10-19 04:54:00,41.0,35.0,-100.00,NW,315,1.0,-999.0,79,-99.99,,,-99.99,0.000000,,2013-10-19 09:54:00,
2013-10-19 05:00:00,41.0,34.0,-100.00,NW,315,2.0,-999.0,75,-99.99,,,-99.99,0.000000,,2013-10-19 10:00:00,
2013-10-19 05:42:00,41.0,34.0,-100.00,NW,315,2.0,-999.0,75,-99.99,,,-99.99,0.000000,,2013-10-19 10:42:00,
2013-10-19 05:53:00,41.0,34.0,-100.00,NW,315,2.0,-999.0,75,-99.99,,,-99.99,0.000000,,2013-10-19 10:53:00,
2013-10-19 06:00:00,41.0,34.0,-100.00,NW,315,2.0,-999.0,76,-99.99,,,-99.99,0.000000,,2013-10-19 11:00:00,
2013-10-19 06:42:00,41.0,34.0,-100.00,NW,315,2.0,-999.0,76,-99.99,,,-99.99,0.000000,,2013-10-19 11:42:00,
2013-10-19 06:52:00,41.0,34.0,-100.00,NW,315,2.0,-999.0,76,-99.99,,,-99.99,0.000000,,2013-10-19 11:52:00,
2013-10-19 07:00:00,38.0,33.0,-100.00,WNW,292,1.0,-999.0,83,-99.99,,,-99.99,0.000000,,2013-10-19 12:00:00,
2013-10-19 07:43:00,38.0,33.0,-100.00,WNW,292,1.0,-999.0,83,-99.99,,,-99.99,0.000000,,2013-10-19 12:43:00,
2013-10-19 07:52:00,38.0,33.0,-100.00,WNW,292,1.0,-999.0,83,-99.99,,,-99.99,0.000000,,2013-10-19 12:52:00,
2013-10-19 08:00:00,34.0,31.0,-100.00,SSW,202,0.0,-999.0,91,-99.99,,,-99.99,12.760000,,2013-10-19 13:00:00,
2013-10-19 08:42:00,34.0,31.0,-100.00,SSW,202,0.0,-999.0,91,-99.99,,,-99.99,12.760000,,2013-10-19 13:42:00,
2013-10-19 08:52:00,34.0,31.0,-100.00,SSW,202,0.0,-999.0,91,-99.99,,,-99.99,12.760000,,2013-10-19 13:52:00,
2013-10-19 09:00:00,39.0,37.0,-100.00,South,180,1.0,-999.0,90,-99.99,,,-99.99,162.399994,,2013-10-19 14:00:00,
2013-10-19 09:42:00,39.0,37.0,-100.00,South,180,1.0,-999.0,90,-99.99,,,-99.99,162.399994,,2013-10-19 14:42:00,
2013-10-19 09:52:00,39.0,37.0,-100.00,South,180,1.0,-999.0,90,-99.99,,,-99.99,162.399994,,2013-10-19 14:52:00,
2013-10-19 10:00:00,46.0,40.0,-100.00,SW,225,3.0,-999.0,78,-99.99,,,-99.99,328.279999,,2013-10-19 15:00:00,
2013-10-19 10:44:00,46.0,40.0,-100.00,SW,225,3.0,-999.0,78,-99.99,,,-99.99,328.279999,,2013-10-19 15:44:00,
2013-10-19 10:55:00,46.0,40.0,-100.00,SW,225,3.0,-999.0,78,-99.99,,,-99.99,328.279999,,2013-10-19 15:55:00,
2013-10-19 11:00:00,48.0,38.0,-100.00,WSW,247,3.0,-999.0,69,-99.99,,,-99.99,455.880005,,2013-10-19 16:00:00,
2013-10-19 11:43:00,48.0,38.0,-100.00,WSW,247,3.0,-999.0,69,-99.99,,,-99.99,455.880005,,2013-10-19 16:43:00,
2013-10-19 11:53:00,48.0,38.0,-100.00,WSW,247,3.0,-999.0,69,-99.99,,,-99.99,455.880005,,2013-10-19 16:53:00,
2013-10-19 12:00:00,50.0,37.0,-100.00,WSW,247,4.0,-999.0,61,-99.99,,,-99.99,540.559998,,2013-10-19 17:00:00,
2013-10-19 12:43:00,50.0,37.0,-100.00,WSW,247,4.0,-999.0,61,-99.99,,,-99.99,540.559998,,2013-10-19 17:43:00,
2013-10-19 12:52:00,50.0,37.0,-100.00,WSW,247,4.0,-999.0,61,-99.99,,,-99.99,540.559998,,2013-10-19 17:52:00,
2013-10-19 13:00:00,51.0,33.0,-100.00,West,270,4.0,-999.0,50,-99.99,,,-99.99,546.359985,,2013-10-19 18:00:00,
2013-10-19 13:42:00,51.0,33.0,-100.00,West,270,4.0,-999.0,50,-99.99,,,-99.99,546.359985,,2013-10-19 18:42:00,
2013-10-19 13:52:00,51.0,33.0,-100.00,West,270,4.0,-999.0,50,-99.99,,,-99.99,546.359985,,2013-10-19 18:52:00,
2013-10-19 14:00:00,52.0,29.0,-100.00,WSW,247,4.0,-999.0,40,-99.99,,,-99.99,548.679993,,2013-10-19 19:00:00,
2013-10-19 14:42:00,52.0,29.0,-100.00,WSW,247,4.0,-999.0,40,-99.99,,,-99.99,548.679993,,2013-10-19 19:42:00,
2013-10-19 14:52:00,52.0,29.0,-100.00,WSW,247,4.0,-999.0,40,-99.99,,,-99.99,548.679993,,2013-10-19 19:52:00,
2013-10-19 15:00:00,51.0,28.0,-100.00,WSW,247,4.0,-999.0,39,-99.99,,,-99.99,306.239990,,2013-10-19 20:00:00,
2013-10-19 15:42:00,51.0,28.0,-100.00,WSW,247,4.0,-999.0,39,-99.99,,,-99.99,306.239990,,2013-10-19 20:42:00,
2013-10-19 15:52:00,51.0,28.0,-100.00,WSW,247,4.0,-999.0,39,-99.99,,,-99.99,306.239990,,2013-10-19 20:52:00,
2013-10-19 16:00:00,50.0,32.0,-100.00,West,270,3.0,-999.0,50,-99.99,,,-99.99,227.360001,,2013-10-19 21:00:00,
2013-10-19 16:44:00,50.0,32.0,-100.00,West,270,3.0,-999.0,50,-99.99,,,-99.99,227.360001,,2013-10-19 21:44:00,
2013-10-19 16:54:00,50.0,32.0,-100.00,West,270,3.0,-999.0,50,-99.99,,,-99.99,227.360001,,2013-10-19 21:54:00,
2013-10-19 17:00:00,49.0,31.0,-100.00,SSW,202,5.0,-999.0,50,-99.99,,,-99.99,157.759995,,2013-10-19 22:00:00,
2013-10-19 17:43:00,49.0,31.0,-100.00,SSW,202,5.0,-999.0,50,-99.99,,,-99.99,157.759995,,2013-10-19 22:43:00,
2013-10-19 17:53:00,49.0,31.0,-100.00,SSW,202,5.0,-999.0,50,-99.99,,,-99.99,157.759995,,2013-10-19 22:53:00,
2013-10-19 18:00:00,45.0,32.0,-100.00,SSW,202,2.0,-999.0,60,-99.99,,,-99.99,20.879999,,2013-10-19 23:00:00,
2013-10-19 18:42:00,45.0,32.0,-100.00,SSW,202,2.0,-999.0,60,-99.99,,,-99.99,20.879999,,2013-10-19 23:42:00,
2013-10-19 18:53:00,45.0,32.0,-100.00,SSW,202,2.0,-999.0,60,-99.99,,,-99.99,20.879999,,2013-10-19 23:53:00,
2013-10-19 19:00:00,42.0,33.0,-100.00,SSW,202,2.0,-999.0,70,-99.99,,,-99.99,0.000000,,2013-10-20 00:00:00,
2013-10-19 19:42:00,42.0,33.0,-100.00,SSW,202,2.0,-999.0,70,-99.99,,,-99.99,0.000000,,2013-10-20 00:42:00,
2013-10-19 19:52:00,42.0,33.0,-100.00,SSW,202,2.0,-999.0,70,-99.99,,,-99.99,0.000000,,2013-10-20 00:52:00,
2013-10-19 20:00:00,42.0,34.0,-100.00,SSW,202,4.0,-999.0,72,-99.99,,,-99.99,0.000000,,2013-10-20 01:00:00,
2013-10-19 20:42:00,42.0,34.0,-100.00,SSW,202,4.0,-999.0,72,-99.99,,,-99.99,0.000000,,2013-10-20 01:42:00,
2013-10-19 20:52:00,42.0,34.0,-100.00,SSW,202,4.0,-999.0,72,-99.99,,,-99.99,0.000000,,2013-10-20 01:52:00,
2013-10-19 21:00:00,44.0,37.0,-100.00,WSW,247,5.0,-999.0,74,-99.99,,,-99.99,0.000000,,2013-10-20 02:00:00,
2013-10-19 21:42:00,44.0,37.0,-100.00,WSW,247,5.0,-999.0,74,-99.99,,,-99.99,0.000000,,2013-10-20 02:42:00,
2013-10-19 21:52:00,44.0,37.0,-100.00,WSW,247,5.0,-999.0,74,-99.99,,,-99.99,0.000000,,2013-10-20 02:52:00,
2013-10-19 22:00:00,-999.0,-99.9,-100.00,WSW,247,6.0,-999.0,-999,-99.99,,,-99.99,,,2013-10-20 03:00:00,
2013-10-19 22:44:00,43.0,36.0,-100.00,WSW,247,6.0,-999.0,76,-99.99,,,-99.99,0.000000,,2013-10-20 03:44:00,
2013-10-19 22:55:00,43.0,36.0,-100.00,WSW,247,6.0,-999.0,76,-99.99,,,-99.99,0.000000,,2013-10-20 03:55:00,
2013-10-19 23:00:00,43.0,36.0,-100.00,West,270,5.0,-999.0,77,-99.99,,,-99.99,0.000000,,2013-10-20 04:00:00,
2013-10-19 23:44:00,43.0,36.0,-100.00,West,270,5.0,-999.0,77,-99.99,,,-99.99,0.000000,,2013-10-20 04:44:00,
2013-10-19 23:54:00,43.0,36.0,-100.00,West,270,5.0,-999.0,77,-99.99,,,-99.99,0.000000,,2013-10-20 04:54:00,